Regional Weather Roundup
Issued by NWS

Home | Current Version | Previous Version | Text Only | Print | Product List | Glossary On
Versions: 1 2 3 4 5 6 7 8 9 10 11 12 13 14 15 16 17 18 19 20 21 22 23 24 25 26 27 28 29 30 31 32 33 34 35 36 37 38 39 40 41 42 43 44 45 46 47 48 49 50
000
ASUS43 KDMX 210407
RWRIA

WEATHER ROUNDUP FOR IOWA
NATIONAL WEATHER SERVICE DES MOINES IA
1100 PM CDT SAT SEP 20 2014

NOTE: "FAIR" INDICATES FEW OR NO CLOUDS BELOW 12,000 FEET WITH NO
SIGNIFICANT WEATHER AND/OR OBSTRUCTIONS TO VISIBILITY.

* - THESE STATIONS ARE NOT NWS STATIONS...THUS NOT UNDER NWS
QUALITY CONTROL.  THEY ALSO DO NOT REPORT WEATHER SUCH
AS PRECIPITATION OR FOG.

IAZ001>003-012>014-020>022-031>034-043>046-210500-
   NORTHWEST IOWA

CITY           SKY/WX    TMP DP  RH WIND       PRES   REMARKS
CARROLL *      PTCLDY    57  52  82 CALM      30.02R
CHEROKEE *     CLEAR     57  55  94 CALM      30.02S
DENISON *      CLEAR     63  54  72 CALM      30.02R
LE MARS *        N/A     57  52  82 NW5       30.04R
ORANGE CITY *  CLEAR     55  46  71 NW3       30.04R
SHELDON *      CLEAR     55  50  82 W6        30.01R
SIOUX CITY     CLEAR     64  50  60 NW8       30.05R
SPENCER        CLEAR     53  51  93 SW6       30.00R
STORM LAKE *   CLEAR     55  54  94 N6        30.02R
$$

IAZ055>058-069>071-079>083-090>094-210500-
   SOUTHWEST IOWA

CITY           SKY/WX    TMP DP  RH WIND       PRES   REMARKS
ATLANTIC *     PTCLDY    66  54  63 N7        30.02R
AUDUBON *      CLEAR     63  48  59 N7        30.04R
CLARINDA *     PTCLDY    72  59  64 NW12      30.00R
COUNCIL BLFS * CLEAR     70  55  60 N10G18    30.03R
CRESTON *      MOCLDY    68  59  73 N15G24    30.00R
HARLAN  *      CLEAR     64  55  72 N9        30.06R
LAMONI           N/A     67  59  75 W9        29.94S
RED OAK *      PTCLDY    70  57  64 N16G24    30.02R
SHENANDOAH *     N/A     70  61  73 NW10      30.01R
$$

IAZ047>049-059>061-072>074-084-210500-
   CENTRAL IOWA

CITY           SKY/WX    TMP DP  RH WIND       PRES   REMARKS
AMES           CLEAR     63  53  70 N18       29.98R
ANKENY *       PTCLDY    66  54  63 N14G22    29.97R
CHARITON *     PTCLDY    70  61  73 W8        29.91S
DES MOINES     PTCLDY    69  52  54 N16G32    29.97R
GRINNELL*      PTCLDY    64  55  72 NW10G18   29.94R
KNOXVILLE *    CLOUDY    72  52  49 N24G32    29.93R
MARSHALLTOWN   PTCLDY    61  56  83 NW16      29.94R
PELLA *        PTCLDY    70  52  52 N17G29    29.95R
PERRY *          N/A     64  52  63 N9        30.00R
$$

IAZ004>006-015-016-023>025-035-036-210500-
   NORTH CENTRAL IOWA

CITY           SKY/WX    TMP DP  RH WIND       PRES   REMARKS
ALGONA *       CLEAR     57  54  88 W6        29.97S
CLARION *        N/A     57  55  94 NW6       29.97R
ESTHERVILLE    CLEAR     55  53  93 W8        29.98R
FORT DODGE *   CLEAR     59  52  77 CALM      30.00R
MASON CITY     CLEAR     57  55  93 NW10      29.95R
FOREST CITY *  CLEAR     55  55 100 W6        29.95R
IOWA FALLS *     N/A     59  54  82 NW9       29.97R
$$

IAZ007>011-017>019-026>030-037>042-050>054-066-210500-
   NORTHEAST IOWA

CITY           SKY/WX    TMP DP  RH WIND       PRES   REMARKS
CEDAR RAPIDS   PTCLDY    64  59  83 NW13      29.88R
CHARLES CITY * CLEAR     57  54  88 NW13G22   29.92R
CLINTON *      MOCLDY    70  64  83 NW22G29   29.84R
DECORAH *      MOCLDY    57  55  94 NW13G23   29.87R
DUBUQUE        CLOUDY    62  60  93 NW6       29.83S
MONTICELLO *   CLOUDY    63  61  94 NW8       29.85R
OELWEIN *      MOCLDY    59  55  88 NW18G25   29.90R
WATERLOO       CLEAR     59  56  89 NW15G22   29.91R
$$

IAZ064-065-067-068-078-210500-
   EAST CENTRAL IOWA

CITY           SKY/WX    TMP DP  RH WIND       PRES   REMARKS
DAVENPORT      PTCLDY    71  62  73 NW21G35   29.84R
IOWA CITY        N/A     69  59  70 NW13      29.87R
MT. PLEASANT * CLEAR     70  68  94 SW6       29.86R
MUSCATINE *    PTCLDY    73  64  73 W15       29.84R
QUAD CITIES    CLEAR     71  67  87 SW9       29.79F
$$

IAZ062-063-075>077-085>089-095>099-210500-
   SOUTHEAST IOWA

CITY           SKY/WX    TMP DP  RH WIND       PRES   REMARKS
BURLINGTON     CLEAR     75  69  81 W8        29.86R
FAIRFIELD *    CLEAR     70  64  83 W8        29.86S
FORT MADISON * CLEAR     73  70  88 W7        29.88R
KEOKUK *       CLEAR     72  68  88 W8        29.87R
OSKALOOSA *      N/A     68  63  83 NW20G35   29.91R
CENTERVILLE *  CLEAR     68  66  94 W8        29.93S
OTTUMWA        CLEAR     68  64  87 W7        29.87S
WASHINGTON *   PTCLDY    70  66  88 W9G16     29.85R
$$

ABBREVIATIONS USED IN REMARKS
   TC - TEMPERATURES IN CELSIUS
  WCI - WIND CHILL INDEX
   HX - HEAT INDEX
  VSB - VISIBILITY
$$



USA.gov is the U.S. government's official web portal to all federal, state and local government web resources and services.